Precipitable_Water
0.89 0.91 0.93 0.95 1.01 1.03 1.03 1.03 1.03 1.07 1.09 1.11 1.11 1.11 1.11 1.09 1.09 1.07 1.05 1.01 0.95 0.87 0.79 0.79 0.77 0.77 0.77 0.75 0.73 0.72 0.72 0.73 0.73 0.73 0.73 0.73 0.73 0.72 0.72 0.72 0.70 0.70 0.68 0.68 0.68 0.66 0.66 0.66 0.64 0.64 0.62 0.60 0.60 0.58 0.56 0.56 0.54 0.52 0.52 0.50 0.48 0.46 0.46 0.44 0.42 0.40 0.40 0.38 0.36
0.91 0.93 0.97 1.01 1.03 1.03 1.03 1.03 1.05 1.07 1.09 1.09 1.09 1.09 1.09 1.09 1.07 1.03 0.99 0.95 0.89 0.83 0.79 0.79 0.77 0.75 0.75 0.73 0.72 0.72 0.73 0.73 0.73 0.73 0.73 0.73 0.73 0.72 0.72 0.72 0.70 0.70 0.68 0.68 0.66 0.66 0.66 0.66 0.64 0.62 0.62 0.60 0.60 0.58 0.56 0.56 0.54 0.52 0.52 0.50 0.48 0.46 0.44 0.42 0.42 0.40 0.38 0.38 0.36
0.93 0.95 0.99 1.03 1.03 1.03 1.03 1.03 1.03 1.05 1.07 1.07 1.07 1.09 1.09 1.07 1.03 0.99 0.93 0.87 0.83 0.83 0.81 0.77 0.75 0.75 0.73 0.72 0.72 0.72 0.73 0.73 0.73 0.73 0.73 0.73 0.72 0.72 0.72 0.70 0.70 0.68 0.68 0.66 0.66 0.66 0.66 0.66 0.62 0.62 0.60 0.60 0.58 0.58 0.56 0.56 0.54 0.52 0.50 0.50 0.48 0.46 0.42 0.42 0.40 0.40 0.38 0.36 0.36
0.95 0.97 0.99 1.01 1.01 0.99 0.99 1.01 1.03 1.03 1.03 1.05 1.05 1.07 1.07 1.05 0.99 0.93 0.89 0.85 0.83 0.81 0.79 0.75 0.73 0.72 0.72 0.72 0.72 0.72 0.73 0.73 0.73 0.73 0.73 0.73 0.72 0.72 0.72 0.70 0.70 0.68 0.68 0.66 0.66 0.64 0.64 0.64 0.62 0.62 0.60 0.60 0.58 0.58 0.56 0.56 0.54 0.52 0.50 0.48 0.46 0.44 0.42 0.40 0.40 0.38 0.38 0.36 0.34
0.97 0.99 1.01 1.01 0.99 0.99 0.99 1.01 1.01 1.03 1.03 1.03 1.05 1.05 1.03 1.01 0.95 0.89 0.87 0.85 0.83 0.81 0.77 0.73 0.72 0.72 0.72 0.72 0.72 0.72 0.72 0.73 0.73 0.73 0.73 0.72 0.72 0.72 0.70 0.70 0.68 0.68 0.66 0.66 0.64 0.64 0.64 0.62 0.62 0.62 0.60 0.60 0.58 0.58 0.56 0.56 0.52 0.50 0.50 0.48 0.46 0.44 0.42 0.40 0.38 0.38 0.36 0.36 0.34
0.97 0.99 1.01 1.01 0.99 0.99 1.01 1.01 1.01 1.03 1.05 1.05 1.03 1.03 1.01 0.97 0.91 0.89 0.87 0.85 0.81 0.77 0.73 0.72 0.72 0.72 0.72 0.72 0.72 0.72 0.72 0.73 0.73 0.73 0.72 0.72 0.72 0.70 0.70 0.68 0.68 0.68 0.66 0.66 0.64 0.64 0.62 0.62 0.62 0.62 0.60 0.60 0.58 0.58 0.56 0.54 0.52 0.50 0.48 0.46 0.44 0.44 0.42 0.40 0.38 0.38 0.36 0.36 0.34
0.97 0.99 0.99 1.01 1.01 1.01 1.01 1.01 1.03 1.05 1.05 1.03 1.03 1.01 0.97 0.95 0.93 0.89 0.85 0.81 0.77 0.73 0.72 0.70 0.72 0.72 0.72 0.72 0.72 0.72 0.72 0.72 0.72 0.72 0.72 0.72 0.72 0.70 0.68 0.68 0.68 0.66 0.66 0.64 0.64 0.64 0.62 0.62 0.62 0.62 0.60 0.58 0.58 0.56 0.56 0.54 0.52 0.50 0.46 0.44 0.44 0.42 0.42 0.40 0.40 0.38 0.36 0.34 0.34
0.99 1.01 1.01 1.01 1.01 1.03 1.03 1.05 1.05 1.05 1.03 1.03 1.01 0.99 0.97 0.95 0.91 0.87 0.81 0.77 0.73 0.72 0.70 0.70 0.72 0.72 0.72 0.72 0.72 0.72 0.72 0.72 0.72 0.72 0.72 0.72 0.70 0.70 0.68 0.68 0.66 0.66 0.64 0.64 0.64 0.62 0.62 0.62 0.62 0.62 0.60 0.60 0.58 0.56 0.54 0.54 0.52 0.48 0.46 0.42 0.42 0.42 0.40 0.40 0.38 0.38 0.36 0.34 0.34
0.99 1.01 1.01 1.03 1.03 1.03 1.05 1.07 1.07 1.05 1.01 0.99 0.97 0.97 0.97 0.97 0.87 0.81 0.75 0.73 0.70 0.70 0.70 0.72 0.72 0.72 0.72 0.72 0.72 0.72 0.72 0.72 0.72 0.72 0.72 0.70 0.70 0.68 0.68 0.66 0.66 0.64 0.64 0.64 0.62 0.62 0.62 0.62 0.62 0.60 0.60 0.58 0.56 0.54 0.54 0.52 0.50 0.48 0.44 0.44 0.42 0.40 0.40 0.38 0.38 0.38 0.36 0.34 0.32
0.99 0.99 1.01 1.03 1.03 1.03 1.03 1.05 1.05 1.01 0.99 0.97 0.97 0.97 0.95 0.93 0.79 0.73 0.72 0.70 0.70 0.70 0.70 0.72 0.72 0.72 0.72 0.72 0.72 0.72 0.72 0.72 0.72 0.72 0.70 0.70 0.70 0.68 0.68 0.66 0.64 0.64 0.64 0.62 0.62 0.62 0.62 0.62 0.60 0.60 0.60 0.58 0.56 0.54 0.52 0.50 0.48 0.46 0.44 0.42 0.42 0.40 0.38 0.38 0.36 0.36 0.36 0.34 0.32
0.99 0.99 1.01 1.01 1.01 0.99 0.99 0.99 0.99 0.99 0.99 0.97 0.95 0.89 0.85 0.79 0.73 0.72 0.70 0.70 0.70 0.70 0.70 0.72 0.72 0.72 0.72 0.70 0.72 0.72 0.72 0.72 0.72 0.70 0.70 0.70 0.68 0.68 0.66 0.66 0.64 0.64 0.64 0.62 0.62 0.62 0.62 0.62 0.60 0.60 0.58 0.58 0.56 0.54 0.52 0.50 0.46 0.44 0.42 0.42 0.40 0.40 0.38 0.36 0.36 0.36 0.34 0.32 0.32
0.99 0.99 0.99 0.97 0.97 0.95 0.95 0.95 0.97 0.97 0.97 0.93 0.89 0.83 0.77 0.73 0.72 0.72 0.70 0.70 0.70 0.70 0.72 0.72 0.72 0.70 0.70 0.70 0.70 0.70 0.72 0.72 0.70 0.70 0.70 0.68 0.68 0.68 0.66 0.66 0.64 0.64 0.64 0.64 0.64 0.62 0.62 0.62 0.60 0.58 0.58 0.56 0.56 0.54 0.52 0.48 0.46 0.44 0.42 0.40 0.40 0.38 0.36 0.36 0.34 0.34 0.34 0.32 0.32
0.97 0.95 0.95 0.95 0.93 0.93 0.93 0.93 0.95 0.95 0.93 0.87 0.81 0.77 0.73 0.70 0.70 0.70 0.70 0.70 0.70 0.70 0.70 0.70 0.70 0.70 0.70 0.70 0.70 0.70 0.70 0.70 0.70 0.70 0.68 0.68 0.68 0.66 0.66 0.64 0.64 0.64 0.64 0.64 0.62 0.62 0.62 0.62 0.60 0.58 0.56 0.56 0.54 0.54 0.52 0.48 0.44 0.42 0.40 0.40 0.38 0.36 0.36 0.34 0.34 0.32 0.32 0.32 0.30
0.95 0.93 0.93 0.91 0.91 0.91 0.93 0.93 0.93 0.91 0.85 0.79 0.75 0.72 0.70 0.70 0.70 0.70 0.70 0.70 0.70 0.70 0.70 0.70 0.70 0.70 0.70 0.70 0.70 0.70 0.70 0.70 0.70 0.70 0.68 0.68 0.66 0.66 0.64 0.64 0.64 0.64 0.64 0.64 0.62 0.62 0.62 0.60 0.60 0.58 0.56 0.54 0.52 0.52 0.50 0.46 0.44 0.42 0.40 0.38 0.36 0.36 0.34 0.34 0.32 0.32 0.30 0.30 0.30
0.91 0.91 0.91 0.91 0.91 0.91 0.93 0.93 0.91 0.85 0.79 0.73 0.72 0.70 0.70 0.68 0.68 0.70 0.70 0.70 0.70 0.70 0.70 0.70 0.70 0.70 0.70 0.70 0.70 0.70 0.70 0.70 0.70 0.68 0.68 0.66 0.66 0.66 0.64 0.64 0.64 0.64 0.64 0.64 0.62 0.62 0.62 0.60 0.60 0.58 0.56 0.52 0.52 0.50 0.48 0.44 0.44 0.42 0.38 0.36 0.36 0.34 0.32 0.32 0.32 0.32 0.30 0.30 0.30
0.89 0.89 0.89 0.89 0.91 0.93 0.93 0.91 0.89 0.81 0.73 0.72 0.70 0.68 0.68 0.68 0.68 0.68 0.70 0.70 0.70 0.70 0.70 0.70 0.68 0.68 0.70 0.70 0.70 0.70 0.70 0.70 0.70 0.68 0.66 0.66 0.66 0.66 0.64 0.64 0.64 0.64 0.64 0.62 0.62 0.62 0.60 0.60 0.58 0.58 0.56 0.52 0.50 0.48 0.44 0.44 0.42 0.40 0.38 0.36 0.34 0.34 0.32 0.32 0.32 0.30 0.30 0.30 0.28
0.89 0.89 0.89 0.91 0.93 0.93 0.91 0.89 0.83 0.77 0.72 0.70 0.68 0.68 0.68 0.68 0.68 0.68 0.70 0.70 0.70 0.70 0.68 0.68 0.68 0.68 0.70 0.70 0.70 0.70 0.70 0.70 0.68 0.68 0.66 0.66 0.66 0.66 0.66 0.64 0.64 0.64 0.62 0.62 0.62 0.60 0.60 0.60 0.58 0.56 0.54 0.52 0.48 0.46 0.44 0.42 0.40 0.40 0.38 0.36 0.34 0.34 0.32 0.32 0.32 0.30 0.30 0.30 0.28
0.87 0.89 0.91 0.91 0.91 0.91 0.87 0.83 0.79 0.73 0.70 0.68 0.68 0.68 0.68 0.68 0.68 0.68 0.70 0.70 0.70 0.68 0.68 0.68 0.68 0.70 0.70 0.70 0.70 0.70 0.70 0.68 0.68 0.68 0.66 0.66 0.66 0.66 0.66 0.64 0.64 0.64 0.62 0.62 0.60 0.60 0.60 0.58 0.58 0.56 0.54 0.52 0.48 0.46 0.42 0.40 0.40 0.38 0.36 0.34 0.34 0.34 0.32 0.32 0.30 0.30 0.30 0.30 0.28
0.87 0.89 0.91 0.91 0.89 0.87 0.85 0.79 0.75 0.72 0.70 0.68 0.68 0.68 0.68 0.68 0.68 0.68 0.68 0.68 0.70 0.70 0.70 0.70 0.70 0.70 0.70 0.70 0.70 0.70 0.70 0.68 0.68 0.68 0.68 0.66 0.66 0.66 0.64 0.64 0.64 0.62 0.62 0.62 0.60 0.60 0.58 0.58 0.56 0.54 0.52 0.50 0.48 0.44 0.42 0.40 0.38 0.36 0.36 0.34 0.34 0.32 0.32 0.32 0.30 0.30 0.30 0.30 0.30
0.87 0.89 0.89 0.89 0.87 0.85 0.81 0.77 0.73 0.72 0.70 0.68 0.68 0.68 0.68 0.68 0.68 0.68 0.68 0.68 0.70 0.70 0.70 0.70 0.70 0.70 0.70 0.70 0.70 0.70 0.70 0.70 0.68 0.68 0.68 0.66 0.66 0.64 0.64 0.64 0.62 0.62 0.62 0.62 0.60 0.58 0.58 0.56 0.54 0.52 0.50 0.48 0.46 0.44 0.42 0.38 0.36 0.36 0.34 0.34 0.32 0.32 0.32 0.32 0.32 0.30 0.30 0.30 0.30
0.87 0.89 0.89 0.87 0.85 0.81 0.77 0.73 0.72 0.70 0.70 0.68 0.68 0.68 0.68 0.68 0.68 0.68 0.68 0.68 0.68 0.70 0.70 0.70 0.70 0.70 0.70 0.70 0.70 0.70 0.70 0.70 0.68 0.68 0.68 0.66 0.66 0.64 0.64 0.62 0.62 0.62 0.62 0.60 0.60 0.58 0.56 0.54 0.52 0.50 0.48 0.46 0.44 0.42 0.40 0.38 0.36 0.34 0.34 0.34 0.32 0.32 0.32 0.32 0.32 0.32 0.30 0.30 0.30
0.87 0.87 0.87 0.85 0.81 0.77 0.75 0.72 0.72 0.70 0.70 0.68 0.68 0.68 0.68 0.68 0.68 0.68 0.68 0.68 0.68 0.70 0.70 0.70 0.70 0.70 0.70 0.70 0.70 0.70 0.70 0.68 0.68 0.68 0.66 0.66 0.66 0.64 0.64 0.64 0.62 0.62 0.62 0.60 0.60 0.58 0.56 0.52 0.50 0.50 0.48 0.46 0.44 0.42 0.40 0.38 0.36 0.34 0.34 0.32 0.32 0.32 0.32 0.32 0.32 0.32 0.30 0.30 0.30
0.89 0.87 0.85 0.83 0.79 0.75 0.73 0.72 0.70 0.70 0.70 0.70 0.70 0.70 0.70 0.70 0.68 0.68 0.68 0.68 0.68 0.70 0.70 0.70 0.70 0.70 0.70 0.70 0.70 0.70 0.68 0.68 0.68 0.66 0.66 0.66 0.64 0.64 0.64 0.64 0.62 0.62 0.60 0.60 0.58 0.58 0.56 0.54 0.50 0.48 0.44 0.42 0.40 0.38 0.36 0.36 0.36 0.34 0.34 0.32 0.32 0.32 0.32 0.32 0.32 0.30 0.30 0.30 0.28
0.87 0.85 0.83 0.79 0.75 0.73 0.72 0.70 0.70 0.70 0.70 0.70 0.70 0.70 0.70 0.70 0.68 0.68 0.68 0.68 0.70 0.70 0.70 0.70 0.72 0.72 0.70 0.70 0.70 0.68 0.68 0.68 0.66 0.66 0.66 0.64 0.64 0.64 0.64 0.64 0.62 0.62 0.60 0.60 0.58 0.56 0.54 0.52 0.50 0.46 0.40 0.38 0.36 0.36 0.34 0.34 0.32 0.32 0.32 0.32 0.32 0.32 0.32 0.32 0.30 0.30 0.30 0.28 0.28
0.85 0.83 0.81 0.75 0.73 0.72 0.70 0.70 0.70 0.70 0.70 0.70 0.70 0.70 0.70 0.70 0.68 0.68 0.68 0.68 0.70 0.70 0.70 0.72 0.72 0.70 0.70 0.70 0.70 0.68 0.68 0.68 0.66 0.66 0.64 0.64 0.64 0.64 0.64 0.64 0.62 0.62 0.60 0.58 0.54 0.52 0.50 0.50 0.48 0.44 0.40 0.36 0.34 0.34 0.32 0.32 0.32 0.32 0.32 0.32 0.32 0.32 0.30 0.30 0.30 0.30 0.28 0.28 0.26
0.83 0.79 0.77 0.73 0.72 0.70 0.70 0.70 0.70 0.70 0.72 0.72 0.70 0.70 0.70 0.68 0.68 0.68 0.68 0.70 0.70 0.70 0.72 0.72 0.70 0.70 0.70 0.70 0.70 0.68 0.68 0.68 0.66 0.66 0.64 0.64 0.64 0.64 0.64 0.64 0.62 0.60 0.58 0.54 0.52 0.50 0.48 0.48 0.44 0.42 0.38 0.34 0.34 0.32 0.30 0.30 0.30 0.32 0.32 0.32 0.32 0.32 0.30 0.28 0.28 0.28 0.26 0.26 0.24
0.79 0.77 0.73 0.72 0.70 0.70 0.70 0.70 0.72 0.72 0.72 0.72 0.70 0.70 0.68 0.68 0.68 0.68 0.68 0.70 0.70 0.70 0.70 0.70 0.70 0.70 0.70 0.70 0.70 0.70 0.68 0.68 0.66 0.66 0.64 0.64 0.64 0.64 0.64 0.62 0.62 0.58 0.56 0.52 0.50 0.48 0.46 0.46 0.40 0.38 0.36 0.34 0.32 0.30 0.30 0.30 0.30 0.32 0.32 0.32 0.32 0.32 0.30 0.30 0.26 0.26 0.24 0.24 0.24
0.77 0.73 0.72 0.72 0.70 0.70 0.70 0.72 0.72 0.72 0.72 0.72 0.70 0.68 0.68 0.68 0.68 0.68 0.68 0.70 0.70 0.70 0.70 0.70 0.70 0.70 0.70 0.70 0.70 0.70 0.68 0.66 0.66 0.66 0.64 0.64 0.64 0.64 0.62 0.62 0.60 0.58 0.54 0.48 0.46 0.46 0.42 0.38 0.36 0.36 0.34 0.34 0.32 0.32 0.30 0.30 0.32 0.32 0.32 0.32 0.32 0.30 0.28 0.28 0.26 0.24 0.22 0.22 0.22
0.75 0.73 0.72 0.72 0.72 0.72 0.72 0.72 0.72 0.72 0.72 0.70 0.68 0.68 0.68 0.68 0.68 0.68 0.70 0.70 0.70 0.70 0.70 0.70 0.70 0.70 0.72 0.72 0.70 0.70 0.68 0.66 0.66 0.66 0.66 0.64 0.64 0.62 0.60 0.58 0.56 0.54 0.52 0.44 0.44 0.42 0.40 0.36 0.34 0.34 0.32 0.32 0.32 0.32 0.32 0.32 0.32 0.32 0.32 0.32 0.30 0.28 0.26 0.26 0.24 0.24 0.22 0.22 0.22
0.75 0.73 0.73 0.73 0.73 0.73 0.73 0.73 0.72 0.72 0.70 0.68 0.68 0.68 0.68 0.68 0.68 0.70 0.70 0.70 0.70 0.70 0.70 0.72 0.72 0.72 0.72 0.70 0.70 0.68 0.66 0.66 0.66 0.66 0.64 0.64 0.62 0.60 0.58 0.56 0.54 0.52 0.48 0.46 0.42 0.38 0.34 0.34 0.32 0.32 0.32 0.32 0.32 0.32 0.32 0.32 0.30 0.30 0.30 0.28 0.28 0.26 0.26 0.24 0.24 0.22 0.22 0.22 0.22
0.75 0.75 0.75 0.75 0.75 0.75 0.73 0.73 0.72 0.70 0.70 0.68 0.68 0.68 0.68 0.68 0.68 0.68 0.70 0.70 0.70 0.70 0.72 0.72 0.72 0.72 0.70 0.68 0.68 0.66 0.66 0.66 0.66 0.64 0.64 0.62 0.60 0.58 0.56 0.54 0.50 0.48 0.46 0.42 0.40 0.36 0.32 0.32 0.32 0.32 0.32 0.32 0.32 0.32 0.32 0.32 0.30 0.30 0.28 0.28 0.26 0.26 0.24 0.24 0.24 0.22 0.22 0.22 0.22
0.75 0.75 0.75 0.75 0.75 0.75 0.75 0.73 0.72 0.70 0.68 0.68 0.68 0.68 0.68 0.68 0.68 0.68 0.68 0.70 0.70 0.72 0.72 0.72 0.72 0.70 0.68 0.68 0.66 0.66 0.66 0.66 0.66 0.64 0.62 0.60 0.58 0.54 0.52 0.50 0.46 0.44 0.42 0.38 0.34 0.32 0.32 0.32 0.32 0.32 0.32 0.32 0.32 0.32 0.32 0.30 0.30 0.30 0.28 0.26 0.26 0.24 0.24 0.24 0.22 0.22 0.22 0.22 0.22
0.75 0.75 0.75 0.77 0.77 0.75 0.73 0.72 0.70 0.68 0.68 0.68 0.68 0.68 0.68 0.68 0.68 0.68 0.68 0.70 0.72 0.72 0.72 0.70 0.70 0.68 0.66 0.66 0.66 0.66 0.66 0.66 0.64 0.62 0.60 0.56 0.54 0.52 0.48 0.46 0.42 0.40 0.38 0.34 0.32 0.30 0.30 0.32 0.32 0.32 0.32 0.32 0.32 0.32 0.30 0.30 0.30 0.28 0.26 0.26 0.24 0.24 0.22 0.22 0.22 0.22 0.22 0.22 0.22
0.75 0.77 0.77 0.77 0.75 0.73 0.72 0.70 0.70 0.68 0.68 0.68 0.68 0.68 0.68 0.68 0.68 0.68 0.70 0.72 0.72 0.72 0.70 0.70 0.68 0.68 0.68 0.66 0.66 0.66 0.66 0.64 0.62 0.60 0.58 0.54 0.50 0.46 0.44 0.40 0.38 0.36 0.34 0.30 0.30 0.30 0.30 0.30 0.32 0.32 0.32 0.32 0.32 0.30 0.30 0.28 0.28 0.26 0.24 0.24 0.22 0.22 0.22 0.22 0.22 0.22 0.22 0.22 0.22
0.77 0.77 0.77 0.77 0.75 0.72 0.70 0.70 0.68 0.68 0.66 0.66 0.68 0.68 0.68 0.68 0.68 0.70 0.72 0.73 0.73 0.72 0.70 0.68 0.68 0.68 0.68 0.68 0.66 0.66 0.64 0.62 0.60 0.58 0.56 0.52 0.46 0.42 0.38 0.36 0.34 0.34 0.32 0.30 0.30 0.30 0.30 0.30 0.32 0.32 0.32 0.30 0.30 0.28 0.28 0.26 0.26 0.24 0.22 0.22 0.22 0.22 0.22 0.22 0.22 0.22 0.22 0.22 0.22
0.79 0.77 0.77 0.75 0.72 0.70 0.68 0.68 0.66 0.66 0.66 0.66 0.66 0.66 0.68 0.68 0.70 0.72 0.73 0.73 0.72 0.70 0.68 0.68 0.68 0.68 0.66 0.66 0.64 0.64 0.62 0.60 0.56 0.54 0.52 0.48 0.42 0.38 0.34 0.32 0.32 0.32 0.32 0.32 0.30 0.30 0.30 0.30 0.32 0.32 0.30 0.30 0.28 0.28 0.26 0.24 0.22 0.22 0.22 0.22 0.20 0.20 0.20 0.22 0.22 0.22 0.22 0.24 0.24
0.77 0.75 0.73 0.72 0.70 0.68 0.66 0.66 0.66 0.66 0.66 0.66 0.66 0.68 0.68 0.70 0.72 0.72 0.72 0.72 0.70 0.68 0.68 0.68 0.68 0.66 0.66 0.64 0.62 0.60 0.58 0.56 0.54 0.50 0.46 0.42 0.40 0.36 0.32 0.30 0.30 0.30 0.32 0.32 0.32 0.32 0.30 0.30 0.30 0.30 0.30 0.28 0.28 0.26 0.24 0.24 0.22 0.22 0.20 0.20 0.20 0.20 0.20 0.20 0.20 0.22 0.22 0.24 0.24
0.75 0.73 0.70 0.68 0.68 0.66 0.66 0.64 0.64 0.66 0.66 0.66 0.68 0.70 0.72 0.72 0.72 0.72 0.70 0.70 0.68 0.68 0.68 0.66 0.66 0.64 0.64 0.62 0.60 0.58 0.54 0.52 0.48 0.44 0.40 0.38 0.34 0.32 0.30 0.30 0.30 0.30 0.32 0.32 0.32 0.30 0.30 0.30 0.30 0.30 0.28 0.28 0.26 0.24 0.24 0.22 0.20 0.20 0.20 0.20 0.20 0.20 0.20 0.20 0.22 0.22 0.22 0.22 0.22
0.72 0.70 0.68 0.66 0.66 0.66 0.64 0.64 0.66 0.66 0.68 0.68 0.70 0.72 0.72 0.72 0.72 0.70 0.70 0.68 0.68 0.68 0.68 0.66 0.64 0.62 0.60 0.58 0.56 0.54 0.50 0.46 0.42 0.40 0.36 0.34 0.32 0.30 0.30 0.28 0.30 0.30 0.32 0.32 0.32 0.30 0.30 0.28 0.28 0.28 0.28 0.26 0.24 0.24 0.22 0.22 0.20 0.20 0.20 0.20 0.20 0.20 0.20 0.22 0.22 0.22 0.22 0.20 0.20
0.68 0.66 0.66 0.66 0.64 0.64 0.64 0.66 0.66 0.68 0.70 0.72 0.72 0.72 0.72 0.70 0.70 0.68 0.68 0.68 0.68 0.68 0.68 0.66 0.62 0.60 0.58 0.54 0.52 0.48 0.44 0.40 0.38 0.34 0.32 0.30 0.30 0.30 0.30 0.30 0.30 0.30 0.32 0.32 0.30 0.30 0.28 0.28 0.26 0.26 0.26 0.24 0.24 0.22 0.22 0.20 0.20 0.20 0.20 0.20 0.20 0.20 0.20 0.20 0.20 0.20 0.20 0.20 0.20
0.66 0.66 0.64 0.64 0.64 0.64 0.66 0.68 0.70 0.70 0.72 0.72 0.72 0.72 0.70 0.70 0.68 0.68 0.68 0.68 0.68 0.66 0.66 0.64 0.60 0.56 0.52 0.50 0.46 0.42 0.38 0.36 0.34 0.32 0.30 0.30 0.30 0.30 0.30 0.32 0.32 0.30 0.30 0.30 0.28 0.28 0.26 0.26 0.26 0.26 0.24 0.24 0.24 0.22 0.22 0.20 0.20 0.20 0.20 0.20 0.20 0.20 0.20 0.20 0.20 0.20 0.18 0.18 0.18
Wind_Speed
28 28 28 27 27 27 26 26 26 26 25 24 23 23 23 23 22 22 22 21 21 21 21 21 21 20 19 19 19 18 18 18 17 17 17 17 17 17 17 18 18 18 19 19 20 20 21 22 23 23 24 25 25 25 26 26 27 27 28 28 28 29 29 30 30 31 31 31 31
28 28 27 27 27 27 26 26 25 25 24 23 23 24 24 23 22 22 21 21 22 22 22 21 20 20 19 19 19 18 18 18 18 17 17 17 17 18 18 18 18 19 19 20 20 21 22 23 23 24 25 25 25 26 26 26 27 28 28 29 29 29 30 30 31 31 31 31 32
28 28 27 27 27 27 26 26 25 25 24 23 24 24 24 23 22 22 22 22 22 22 21 20 20 19 19 19 19 18 18 18 18 18 18 18 18 18 18 18 19 19 20 20 21 22 23 23 24 25 25 25 26 26 26 27 27 28 28 29 29 30 30 30 31 31 31 32 32
28 27 27 27 27 27 26 25 25 24 24 24 24 24 24 22 22 22 22 22 22 21 21 20 20 19 19 19 19 19 19 18 18 18 18 18 18 18 18 19 19 20 20 21 22 23 23 24 25 25 25 26 26 26 27 27 28 28 29 29 30 30 30 31 31 31 32 32 33
27 27 27 27 27 27 26 25 25 24 24 24 24 24 23 22 22 22 22 22 22 21 21 20 20 19 19 19 19 19 19 18 18 18 18 18 18 19 19 19 20 20 21 22 22 23 24 24 25 25 26 26 26 27 27 28 28 29 29 30 30 30 31 31 31 32 32 33 33
27 27 27 27 27 27 26 25 24 24 24 24 23 23 22 22 22 22 22 22 21 21 20 20 20 19 19 19 19 19 19 19 19 18 18 18 19 19 19 19 20 21 22 22 23 24 24 25 25 26 26 26 27 27 28 28 29 29 30 30 30 31 31 31 32 32 33 33 34
27 27 27 27 27 26 25 24 24 23 23 23 22 22 22 22 22 22 22 21 21 20 20 20 20 19 19 19 19 19 19 19 19 19 19 19 19 19 19 20 21 21 22 23 23 24 25 25 25 26 26 27 27 28 28 29 29 30 30 31 31 31 31 32 32 33 33 34 34
27 27 27 27 27 26 25 24 23 23 22 22 22 22 22 22 22 21 21 21 20 20 20 20 20 19 19 19 19 19 19 19 19 19 19 19 19 19 20 21 21 22 23 23 24 24 25 25 26 26 27 27 28 28 28 29 30 30 31 31 31 32 32 32 33 33 34 34 35
27 27 27 27 26 26 25 24 23 22 22 22 22 22 22 21 21 21 21 20 20 20 20 20 19 19 19 19 19 19 19 19 19 19 19 19 19 20 20 21 22 22 23 24 24 24 25 26 26 26 27 28 28 28 29 29 30 30 31 31 32 32 33 33 33 34 34 34 35
27 27 27 27 26 25 24 24 23 22 22 22 22 22 21 21 21 21 21 20 20 20 20 19 19 19 19 19 19 19 19 19 19 19 19 19 20 20 21 22 22 23 23 24 24 25 25 26 26 27 27 28 29 29 29 30 30 31 31 32 32 33 33 33 34 34 35 35 35
27 27 27 26 26 25 24 23 23 22 22 22 22 22 21 21 21 21 21 20 20 20 19 19 19 19 19 18 18 18 18 18 19 19 19 20 20 21 21 22 22 23 23 24 25 25 26 26 27 27 28 29 29 29 30 30 31 31 32 32 33 33 33 34 34 35 35 35 36
27 27 26 26 25 24 24 23 22 22 22 22 22 21 21 21 21 21 20 20 20 19 19 19 18 18 18 18 18 18 18 18 19 19 19 20 20 21 21 22 23 23 24 24 25 26 26 27 27 28 28 29 29 30 30 30 31 32 32 33 33 33 34 34 35 35 35 36 36
26 26 26 25 25 24 23 22 22 22 22 22 22 21 21 21 20 20 20 20 19 19 18 18 18 18 18 18 18 18 18 18 19 19 19 20 21 21 22 22 23 23 24 25 25 26 27 27 28 28 29 29 30 30 30 31 31 32 32 33 33 34 34 35 35 35 36 36 37
26 26 25 25 24 23 22 22 22 22 22 22 21 21 21 20 20 20 20 19 19 18 18 18 18 18 18 18 18 18 18 18 19 19 20 20 21 21 22 23 23 24 24 25 26 26 27 27 28 29 29 30 30 30 31 31 32 32 33 33 34 34 35 35 36 36 36 37 37
26 25 25 24 23 22 22 22 22 22 21 21 21 21 20 20 20 20 19 18 18 18 18 17 17 17 17 17 17 18 18 18 19 19 20 20 21 22 22 23 23 24 25 25 26 27 27 28 28 29 29 30 30 31 31 32 32 33 33 34 34 34 35 35 36 36 36 37 37
25 25 24 23 22 22 22 22 22 21 21 21 21 21 20 20 20 19 19 18 18 18 17 17 17 17 17 17 17 18 18 19 19 20 20 21 21 22 22 23 24 24 25 26 26 27 28 28 29 29 30 30 31 31 32 32 33 33 34 34 34 35 35 36 36 36 36 37 37
25 24 23 23 22 22 22 22 21 21 21 21 21 20 20 20 19 19 18 18 18 17 17 17 17 17 17 17 17 18 18 19 19 20 20 21 21 22 23 23 24 25 26 26 27 27 28 29 29 30 30 30 31 31 32 32 33 34 34 34 35 35 35 36 36 36 37 37 37
24 23 23 22 23 22 22 21 21 21 21 20 20 20 20 19 19 18 18 18 17 17 17 17 17 17 17 17 18 18 19 19 20 20 21 21 22 22 23 24 25 25 26 27 27 28 29 29 30 30 30 31 31 32 32 33 33 34 34 35 35 35 36 36 36 36 37 37 38
24 23 23 23 22 22 22 21 21 21 20 20 20 20 19 19 18 18 18 17 17 17 17 17 17 17 17 17 18 18 19 19 20 20 21 21 22 23 23 24 25 26 26 27 28 28 29 30 30 30 31 31 32 32 33 33 34 34 34 35 35 35 36 36 36 36 37 37 38
23 23 22 22 22 22 21 21 21 21 20 20 19 19 19 18 18 18 17 17 17 17 17 17 17 17 17 17 18 18 19 20 20 20 21 22 22 23 24 24 25 26 27 27 28 29 29 30 30 31 31 32 32 33 33 34 34 34 35 35 35 35 36 36 36 37 37 38 38
23 22 22 22 22 21 21 21 21 20 20 19 19 19 18 18 18 17 17 17 17 17 17 17 17 17 17 18 18 19 19 20 20 21 21 22 23 23 24 25 25 26 27 28 28 29 30 30 31 31 32 32 33 33 33 34 34 34 35 35 35 36 36 36 37 37 38 38 38
22 22 22 22 21 21 21 21 20 20 19 19 19 18 18 18 17 17 17 17 17 16 16 17 17 17 17 18 18 19 19 20 20 21 22 22 23 24 24 25 26 27 27 28 29 29 30 31 31 31 32 32 33 33 33 34 34 35 35 35 36 36 36 37 37 37 38 38 39
22 22 22 21 21 21 21 20 20 19 19 19 18 18 18 17 17 17 17 16 16 16 17 17 17 17 18 18 18 19 19 20 21 21 22 23 23 24 25 25 26 27 28 28 29 30 30 31 31 32 32 33 33 33 34 34 34 35 35 36 36 36 37 37 37 38 38 39 39
22 22 22 21 21 21 20 20 20 19 19 18 18 18 17 17 17 17 16 16 16 16 17 17 17 17 18 18 19 19 20 20 21 21 22 23 24 24 25 26 27 27 28 29 29 30 30 31 31 32 32 33 33 34 34 35 35 35 36 36 36 37 37 37 38 38 38 39 39
22 22 21 21 21 21 20 20 19 19 18 18 17 17 17 17 17 17 17 16 16 16 17 17 17 18 18 18 19 19 20 20 21 22 22 23 24 25 26 26 27 28 29 29 30 30 30 31 31 32 32 33 34 34 35 35 35 36 36 36 36 37 37 38 38 38 39 39 39
22 22 21 21 21 20 20 19 19 18 18 17 17 17 17 17 17 17 17 16 16 16 17 17 17 18 18 18 19 20 20 21 22 22 23 23 24 25 26 27 27 28 29 29 30 30 31 31 32 32 33 33 34 34 35 35 36 36 36 36 37 37 38 38 38 38 39 39 39
22 21 21 21 20 20 19 19 18 18 17 17 17 17 17 17 17 17 16 16 16 16 17 17 17 18 18 19 19 20 20 21 22 22 23 24 25 26 27 27 28 28 29 29 30 30 31 31 32 33 33 34 34 35 35 36 36 36 37 37 37 37 38 38 38 38 39 39 39
21 21 21 20 20 19 19 18 18 17 17 17 17 17 17 17 17 16 16 16 16 16 17 17 18 18 19 19 20 20 21 22 22 23 24 25 25 26 27 28 28 28 29 30 30 31 31 32 32 33 34 34 35 35 35 36 36 36 37 37 37 37 38 38 38 38 38 39 39
21 21 21 20 19 19 18 18 17 17 17 17 17 17 17 17 16 16 16 16 16 16 17 17 18 18 19 19 20 21 21 22 23 23 24 25 26 27 27 28 28 29 29 30 30 31 32 32 33 34 34 35 35 35 35 36 36 37 37 37 37 37 38 38 38 38 38 39 39
21 21 20 19 19 18 18 17 17 17 17 17 17 17 17 16 16 16 16 16 16 16 17 18 18 19 19 20 20 21 22 22 23 24 25 26 26 27 27 28 28 29 29 30 31 32 32 33 33 34 34 35 35 35 36 36 37 37 37 37 37 37 38 38 38 38 39 39 39
20 20 19 19 18 17 17 17 17 17 17 17 17 16 16 16 16 16 16 16 16 16 17 18 18 19 19 20 21 21 22 23 24 24 25 26 26 27 28 28 28 29 30 31 31 32 33 33 34 34 35 35 36 36 36 37 37 37 37 37 37 37 38 38 38 38 39 39 40
20 19 19 18 17 17 17 17 17 17 17 16 16 16 16 15 15 15 16 16 16 16 17 18 18 19 20 20 21 22 22 23 24 25 25 26 27 27 28 28 29 29 30 31 32 33 33 34 34 34 35 36 36 36 37 37 37 37 37 37 37 37 38 38 38 38 39 39 40
19 19 18 18 18 17 17 17 17 17 16 16 16 16 15 15 15 15 15 16 16 16 17 18 19 19 20 21 21 22 23 24 24 25 26 26 27 27 28 29 29 30 31 32 32 33 33 34 34 35 35 36 36 37 37 37 37 37 37 37 37 37 37 38 38 39 39 40 40
19 18 18 18 18 18 17 17 17 16 16 16 15 15 15 15 14 15 15 16 16 17 18 18 19 20 20 21 22 23 23 24 25 25 26 26 27 28 28 29 30 30 31 32 33 33 34 34 34 35 36 36 37 37 37 38 37 37 37 37 37 37 38 38 39 39 40 40 40
19 18 18 18 18 18 17 17 16 16 15 15 15 14 14 14 14 14 15 16 17 18 18 19 20 20 21 22 22 23 23 24 25 25 26 27 28 28 29 30 30 31 31 32 33 33 34 34 35 35 36 37 37 37 37 37 37 37 37 37 37 37 38 38 39 39 40 40 40
19 19 18 18 18 17 17 16 16 15 15 14 14 14 14 14 14 15 16 16 17 18 19 19 20 21 21 22 22 23 24 24 25 26 26 27 28 29 30 30 31 31 32 32 33 34 34 35 35 36 36 37 37 37 37 37 37 37 37 37 37 38 38 39 39 39 40 40 41
19 19 18 18 17 17 16 15 15 14 14 13 13 13 13 14 15 16 16 17 18 18 19 20 20 21 21 22 23 23 24 25 25 26 27 28 28 29 30 31 31 31 32 32 33 34 34 35 35 36 37 37 37 37 37 37 36 36 37 37 37 38 38 39 39 39 40 41 42
19 18 18 17 16 16 15 14 14 13 13 13 13 13 14 14 15 16 17 17 18 18 19 20 20 21 21 22 23 24 24 25 26 27 27 28 29 30 30 31 31 32 32 32 33 34 35 35 36 36 37 37 37 37 37 36 36 36 37 37 37 38 38 39 39 40 41 42 43
18 17 17 16 15 15 14 13 13 12 12 12 13 13 14 15 15 16 17 18 18 19 19 20 20 21 22 23 23 24 25 26 26 27 28 29 29 30 30 31 31 32 32 33 33 34 35 35 36 36 36 36 36 36 36 36 36 37 37 37 38 38 39 39 40 41 42 43 44
16 16 15 14 14 13 12 12 12 12 12 13 13 14 14 15 16 16 17 18 18 19 19 20 21 21 22 23 24 25 25 26 27 28 28 29 30 30 31 31 31 32 32 33 34 34 35 35 36 36 36 36 36 36 36 36 36 37 37 37 38 39 39 40 41 41 42 43 43
15 14 13 13 12 12 11 11 11 12 12 13 13 14 15 15 16 17 17 18 18 19 20 20 21 22 23 24 24 25 26 27 27 28 29 29 30 30 31 31 32 32 33 33 34 34 35 35 36 36 36 36 36 36 36 36 36 37 37 38 39 39 40 41 42 42 42 43 43
Wind_Direction
226 227 229 230 231 231 231 230 229 229 229 229 230 232 234 234 232 229 228 228 228 229 231 233 235 236 238 240 243 246 249 251 254 257 261 264 268 271 274 277 280 283 285 287 289 290 292 293 294 295 296 297 298 298 299 300 301 302 303 304 304 305 306 306 305 305 305 305 305
225 226 228 229 230 230 229 229 228 228 229 230 231 232 233 231 229 226 226 226 227 229 230 232 234 235 237 239 243 246 249 251 255 258 262 265 269 272 275 278 281 283 286 288 289 291 292 293 295 296 296 297 298 299 300 301 302 303 304 304 305 305 306 305 305 305 305 305 305
225 226 227 228 228 228 227 227 227 227 228 229 231 231 230 228 226 225 225 226 227 228 230 231 233 235 237 239 243 246 249 252 255 259 263 267 270 273 276 279 282 284 286 289 290 292 293 294 295 296 297 298 298 299 300 301 303 304 304 305 305 305 305 305 305 305 305 305 305
224 225 226 226 226 225 225 225 225 225 227 229 229 228 227 225 225 225 225 225 226 227 229 231 233 235 237 240 243 246 250 253 257 260 264 268 271 274 277 280 282 285 287 289 291 292 293 294 295 296 297 298 299 300 301 302 303 304 304 305 305 305 305 305 305 305 305 305 305
224 225 225 225 223 223 224 224 224 225 227 228 228 227 225 224 224 224 224 225 226 228 230 231 233 235 238 240 243 247 250 254 258 261 265 268 272 275 278 281 283 286 288 290 291 293 294 295 296 297 298 299 300 301 302 303 304 304 304 304 304 304 304 305 305 305 305 305 306
223 224 223 223 222 222 223 223 223 225 227 228 227 225 224 223 223 223 223 224 226 228 229 231 233 235 238 241 244 248 251 255 259 263 266 269 273 276 279 282 284 287 289 290 292 293 294 295 296 297 298 300 301 301 302 303 304 304 304 304 304 304 304 305 305 305 305 306 306
222 222 221 221 220 221 222 222 224 226 227 228 225 223 222 222 221 222 223 225 227 228 230 231 233 236 239 243 246 249 253 257 260 264 267 271 274 277 280 282 285 287 289 290 292 293 294 296 297 298 299 300 301 302 302 303 304 304 304 304 304 304 304 305 305 305 306 306 307
220 220 220 219 220 220 221 221 223 225 226 226 223 220 220 220 220 222 223 225 227 228 230 232 234 238 241 245 248 251 254 258 261 265 268 272 275 278 281 283 286 287 289 291 292 294 295 296 297 299 300 301 301 302 303 303 304 304 304 304 304 304 304 305 305 306 306 307 307
219 219 219 219 220 220 220 221 222 224 224 222 219 218 219 220 221 221 223 225 226 228 230 233 236 239 243 246 250 253 256 260 263 266 270 273 276 279 281 284 286 288 290 291 293 294 296 297 298 299 300 301 302 302 303 303 304 304 304 304 304 304 305 305 306 306 307 307 307
218 218 218 219 220 220 220 220 220 221 220 218 217 217 218 219 220 221 223 224 226 228 231 234 238 241 245 248 252 255 258 261 265 268 271 274 277 279 282 284 286 288 290 292 293 295 296 297 298 299 300 301 302 302 303 303 304 304 304 304 304 305 305 306 306 307 307 307 307
217 217 218 219 219 219 219 218 218 218 217 216 215 216 217 218 219 220 222 224 226 229 232 236 240 243 247 250 254 257 260 263 266 269 272 275 277 280 282 285 287 289 291 292 294 295 296 297 298 299 300 301 302 302 303 303 303 304 304 304 305 305 306 306 307 307 307 307 307
216 217 218 218 218 218 217 216 216 216 215 215 215 215 216 217 218 219 221 224 227 230 234 238 242 246 249 252 255 258 261 264 267 270 273 276 278 280 283 285 287 289 291 293 294 296 297 298 299 300 300 301 302 302 303 303 303 304 304 304 305 306 306 306 307 307 307 307 307
215 216 217 217 217 216 215 214 214 215 215 215 215 215 215 216 217 219 222 225 229 233 237 241 244 248 251 254 256 259 262 265 268 271 274 276 279 281 283 286 288 290 292 293 295 296 297 298 299 300 301 301 302 303 303 303 304 304 304 305 306 306 306 306 306 307 307 307 307
214 215 215 215 215 214 213 213 214 214 215 214 214 214 214 216 218 221 224 227 231 235 239 243 246 250 252 255 258 260 263 267 270 272 275 277 280 282 284 287 289 290 292 294 295 296 297 298 299 300 301 302 302 303 303 303 304 304 305 305 306 306 306 306 306 307 307 307 307
213 213 214 214 213 212 212 212 214 214 214 213 213 213 214 217 220 223 226 229 233 237 240 244 248 251 253 256 259 262 265 268 271 274 276 278 280 283 285 288 289 291 293 294 296 297 298 299 300 301 301 302 302 303 303 304 304 305 305 305 306 306 306 306 307 307 307 308 308
212 212 212 212 211 211 212 213 214 213 212 211 212 213 215 218 221 225 228 231 235 238 242 245 248 251 254 257 260 264 267 270 272 275 277 279 282 284 286 288 290 292 293 295 296 297 298 299 300 301 302 302 303 303 304 304 304 305 305 305 306 306 306 306 307 307 308 308 309
211 211 211 210 209 210 211 212 213 212 211 210 211 213 216 219 223 226 229 232 236 239 242 245 249 252 255 259 262 266 269 271 274 276 278 281 283 285 287 289 291 292 294 295 297 298 299 300 300 301 302 302 303 303 304 304 305 305 305 306 306 306 307 307 307 308 309 309 309
210 210 209 209 209 210 211 211 210 210 209 210 212 215 218 221 224 227 230 234 237 239 242 246 250 253 257 260 264 267 270 272 275 277 280 282 284 286 288 290 292 293 295 296 297 298 299 300 301 301 302 303 303 304 304 304 305 305 305 306 306 307 307 308 308 309 309 309 309
209 208 208 208 209 209 210 209 208 208 209 210 213 216 219 222 225 228 231 234 237 240 243 247 251 254 258 261 265 268 271 273 276 278 281 283 285 288 289 291 293 295 296 297 298 299 300 301 301 302 303 303 304 304 304 305 305 305 306 306 307 307 308 308 308 309 309 309 310
208 207 207 208 208 208 208 208 208 208 210 212 214 217 220 223 226 229 232 235 239 242 245 249 253 256 259 262 266 269 272 275 277 280 282 285 287 289 291 293 294 296 297 298 299 300 300 301 302 302 303 303 304 304 305 305 305 306 307 307 308 308 308 308 309 309 309 310 310
206 206 207 207 207 207 207 207 208 209 210 213 215 218 221 224 228 230 233 237 240 244 248 251 254 258 260 263 267 270 273 276 279 281 284 286 288 290 292 294 295 296 298 299 300 300 301 302 302 303 303 304 304 304 305 305 306 307 307 308 308 308 308 309 309 309 309 310 310
205 206 206 206 207 207 207 207 208 210 212 214 217 220 223 226 229 232 235 239 243 246 250 253 256 259 262 265 268 271 274 277 280 283 285 288 290 292 293 295 296 297 298 299 300 301 302 302 303 303 304 304 304 305 305 306 306 307 307 308 308 308 309 309 309 310 310 310 311
204 205 205 206 206 206 206 207 209 211 213 216 219 222 225 227 230 234 237 241 245 248 251 254 257 260 263 267 270 273 276 279 282 285 287 290 292 293 295 296 297 298 299 300 301 301 302 303 303 304 304 305 305 306 306 307 307 307 308 308 308 308 309 309 310 310 311 311 311
203 204 206 206 206 206 206 208 210 212 215 217 220 223 226 229 232 236 239 243 246 249 253 256 259 262 265 269 272 275 279 282 284 287 289 291 293 294 296 297 298 299 299 300 301 302 303 303 304 305 305 306 306 307 307 308 308 308 308 308 308 309 309 310 310 311 311 311 311
203 204 205 206 206 206 208 209 211 214 217 220 222 225 227 231 234 238 241 244 247 250 254 257 261 264 268 272 275 278 281 284 287 289 291 292 294 295 296 297 298 299 300 301 302 303 303 304 305 305 306 307 307 308 308 308 308 308 308 309 309 309 310 310 311 311 311 311 311
203 204 204 205 206 207 209 211 213 216 219 221 224 226 229 233 236 239 242 245 248 252 256 259 263 267 271 274 278 281 284 286 289 290 292 294 295 296 297 297 298 299 300 301 302 303 304 305 305 306 307 308 308 308 308 309 309 309 309 309 309 310 310 310 311 311 311 311 311
203 203 204 205 206 208 210 213 215 218 220 223 225 228 232 235 238 240 243 246 250 254 258 262 266 270 273 277 280 284 286 288 290 292 294 295 296 296 297 298 298 299 301 302 303 304 305 306 306 307 308 308 308 308 308 309 309 309 309 310 310 310 310 310 311 311 311 310 311
202 203 204 205 207 209 211 214 217 219 222 224 227 230 233 236 239 241 245 248 252 257 261 266 269 273 276 280 283 286 288 290 292 293 295 295 296 296 297 298 299 300 302 303 304 305 306 307 308 308 308 309 309 308 309 309 309 310 310 310 310 310 310 310 310 310 310 310 311
202 203 204 206 207 210 213 215 218 221 224 226 229 232 234 237 240 243 247 251 255 260 264 268 272 276 280 283 286 288 290 292 293 294 295 296 296 296 297 298 300 301 303 305 306 307 307 308 308 308 308 309 309 309 309 309 310 310 310 310 310 310 310 310 310 310 310 311 311
203 204 205 206 208 211 214 217 220 223 226 228 231 233 236 239 242 246 250 254 259 263 267 271 275 279 282 285 287 289 291 293 294 295 295 295 296 297 298 299 301 303 305 306 307 308 308 308 308 308 308 309 309 309 309 310 310 310 311 311 310 310 310 310 310 310 310 311 311
203 204 205 207 209 212 216 219 222 225 227 230 232 234 237 240 244 248 253 257 262 266 270 275 279 282 284 287 289 291 292 293 294 295 295 295 296 298 299 301 303 304 306 307 308 308 308 308 308 308 309 309 309 310 310 310 310 311 311 310 310 310 310 310 310 310 310 311 311
203 204 206 208 211 214 218 221 224 226 228 230 233 236 239 243 247 251 256 260 265 270 274 278 281 284 286 288 290 291 292 293 294 294 295 296 298 299 301 303 304 305 306 307 308 308 308 308 308 309 309 310 310 310 310 310 310 311 310 310 310 309 310 310 310 310 311 311 311
204 205 207 210 213 217 221 223 225 227 229 231 234 237 241 245 250 255 259 265 269 274 278 280 283 285 287 289 290 292 293 293 294 295 296 298 300 302 303 304 305 305 306 307 308 308 308 308 309 309 310 310 310 310 311 311 311 311 310 310 309 309 310 310 310 311 311 311 311
205 207 210 213 216 219 222 223 225 227 230 232 236 239 244 248 253 259 264 269 273 277 280 282 284 286 288 289 291 292 292 293 294 296 297 300 302 303 304 304 305 305 306 307 307 308 308 309 309 310 310 311 311 311 311 311 311 311 310 310 310 310 310 310 311 311 311 312 312
207 209 212 215 217 219 221 223 225 228 231 234 237 242 247 252 258 263 268 272 276 279 282 284 286 287 289 291 292 292 292 293 295 297 300 302 303 304 304 304 304 305 305 306 307 308 309 310 310 311 311 311 311 311 311 311 311 310 310 310 310 310 311 311 311 311 312 312 312
209 211 213 215 217 219 221 223 226 229 232 236 240 245 251 257 262 267 271 275 278 280 283 285 287 289 290 291 291 292 293 295 297 300 302 303 304 304 304 304 304 305 305 306 308 309 310 310 311 311 311 312 311 311 311 311 311 311 311 311 311 311 311 311 312 312 312 313 313
211 212 213 214 216 219 222 225 227 230 234 239 245 251 257 262 266 270 274 277 279 282 284 286 288 289 290 290 291 293 295 297 300 302 303 303 303 303 304 304 305 305 306 307 308 309 310 311 311 312 312 312 312 311 311 311 311 311 311 311 311 312 312 312 312 313 313 313 313
211 212 213 215 217 220 223 226 229 233 238 244 250 256 261 266 270 273 276 279 281 283 285 287 288 288 289 290 292 295 298 300 302 302 302 302 303 303 304 305 305 306 307 307 308 309 310 311 311 312 312 312 312 312 312 312 312 312 312 312 312 312 312 313 313 313 313 313 313
211 212 214 216 218 221 225 229 233 238 244 250 256 261 265 269 272 276 279 281 283 284 286 286 287 288 290 292 295 298 300 301 302 302 302 302 303 304 305 305 306 306 307 308 309 310 311 311 311 312 312 312 312 312 312 312 312 312 312 313 313 313 313 313 313 313 313 313 314
210 212 215 217 221 224 228 233 238 244 250 255 260 265 268 272 275 278 280 283 284 285 285 286 287 290 293 295 298 299 300 300 301 301 302 302 303 304 305 306 306 307 308 309 310 310 311 311 311 312 312 312 312 312 312 313 313 313 313 313 313 313 313 313 313 313 314 314 314
211 213 216 220 224 228 233 238 244 250 255 260 264 268 271 274 277 279 281 282 283 284 286 288 290 293 296 298 299 299 299 299 300 301 302 303 304 304 305 306 307 308 309 310 310 311 311 311 311 312 312 312 313 313 313 313 313 313 313 313 313 313 313 314 314 314 314 314 315